TimeAEST,TemperatureF,Dew PointF,Humidity,Sea Level PressureIn,VisibilityMPH,Wind Direction,Wind SpeedMPH,Gust SpeedMPH,PrecipitationIn,Events,Conditions,WindDirDegrees,DateUTC
12:00 AM,69,,,30.03,,ENE,12.7,,,,,70,2013-05-06 14:00:00
12:00 AM,69.8,69.8,100,30.01,-9999.0,ENE,12.7,-,N/A,,Unknown,70,2013-05-06 14:00:00
12:05 AM,68.0,68.0,100,30.01,-9999.0,ENE,17.3,31.1,N/A,,Unknown,70,2013-05-06 14:05:00
12:35 AM,69.8,69.8,100,29.98,-9999.0,NE,27.6,-,N/A,,Unknown,50,2013-05-06 14:35:00
12:37 AM,69.8,69.8,100,29.98,-9999.0,North,27.6,-,N/A,,Unknown,10,2013-05-06 14:37:00
12:38 AM,69.8,69.8,100,30.01,-9999.0,North,25.3,36.8,N/A,,Unknown,360,2013-05-06 14:38:00
12:42 AM,69.8,69.8,100,30.01,-9999.0,NNE,16.1,36.8,N/A,,Unknown,30,2013-05-06 14:42:00
12:53 AM,71.6,68.0,88,29.98,-9999.0,East,23.0,-,N/A,,Unknown,90,2013-05-06 14:53:00
1:00 AM,71.6,69.8,94,29.98,-9999.0,ESE,26.5,-,N/A,,Unknown,110,2013-05-06 15:00:00
1:03 AM,73.4,68.0,83,29.98,-9999.0,ESE,28.8,42.6,N/A,,Unknown,110,2013-05-06 15:03:00
1:30 AM,73.4,68.0,83,29.98,-9999.0,ESE,33.4,-,N/A,,Unknown,110,2013-05-06 15:30:00
2:00 AM,75.2,66.2,73,29.98,-9999.0,East,33.4,-,N/A,,Unknown,100,2013-05-06 16:00:00
2:30 AM,73.4,66.2,78,29.95,-9999.0,ESE,33.4,-,N/A,,Unknown,110,2013-05-06 16:30:00
3:00 AM,74,65,68,29.97,,ESE,32.2,,,,,110,2013-05-06 17:00:00
3:00 AM,75.2,66.2,73,29.98,-9999.0,ESE,32.2,-,N/A,,Unknown,110,2013-05-06 17:00:00
3:30 AM,75.2,68.0,78,29.95,-9999.0,ESE,33.4,-,N/A,,Unknown,110,2013-05-06 17:30:00
4:00 AM,75.2,66.2,73,29.98,-9999.0,ESE,32.2,-,N/A,,Unknown,110,2013-05-06 18:00:00
4:30 AM,75.2,66.2,73,29.98,-9999.0,East,29.9,-,N/A,,Unknown,100,2013-05-06 18:30:00
5:00 AM,75.2,66.2,73,29.98,-9999.0,ESE,29.9,-,N/A,,Unknown,110,2013-05-06 19:00:00
5:30 AM,75.2,66.2,73,29.98,-9999.0,ESE,28.8,-,N/A,,Unknown,110,2013-05-06 19:30:00
6:00 AM,74,66,69,30.00,,ESE,29.9,,,,,110,2013-05-06 20:00:00
6:00 AM,75.2,66.2,73,29.98,-9999.0,ESE,29.9,-,N/A,,Unknown,110,2013-05-06 20:00:00
6:30 AM,75.2,66.2,73,30.01,-9999.0,ESE,32.2,-,N/A,,Unknown,110,2013-05-06 20:30:00
7:00 AM,75.2,66.2,73,30.01,-9999.0,ESE,29.9,-,N/A,,Unknown,110,2013-05-06 21:00:00
7:30 AM,75.2,64.4,69,30.04,-9999.0,ESE,31.1,-,N/A,,Unknown,120,2013-05-06 21:30:00
8:00 AM,75.2,66.2,73,30.04,-9999.0,ESE,29.9,-,N/A,,Unknown,110,2013-05-06 22:00:00
8:30 AM,77.0,66.2,69,30.04,-9999.0,ESE,27.6,-,N/A,,Unknown,120,2013-05-06 22:30:00
9:00 AM,75,68,72,30.06,,ESE,28.8,,,,,120,2013-05-06 23:00:00
9:00 AM,75.2,68.0,78,30.06,-9999.0,ESE,28.8,-,N/A,,Unknown,120,2013-05-06 23:00:00
9:30 AM,75.2,68.0,78,30.06,-9999.0,ESE,31.1,-,N/A,,Unknown,120,2013-05-06 23:30:00
10:00 AM,75.2,69.8,83,30.06,-9999.0,ESE,28.8,-,N/A,,Unknown,120,2013-05-07 00:00:00
10:30 AM,75.2,68.0,78,30.06,-9999.0,ESE,25.3,-,N/A,,Unknown,120,2013-05-07 00:30:00
11:00 AM,75.2,68.0,78,30.06,-9999.0,ESE,29.9,-,N/A,,Unknown,120,2013-05-07 01:00:00
11:30 AM,73.4,68.0,83,30.04,-9999.0,ESE,35.7,-,N/A,,Unknown,120,2013-05-07 01:30:00
12:00 PM,73.4,68.0,83,30.04,-9999.0,ESE,29.9,-,N/A,,Unknown,120,2013-05-07 02:00:00
12:30 PM,69.8,69.8,100,30.04,-9999.0,ESE,16.1,-,N/A,,Unknown,110,2013-05-07 02:30:00
12:41 PM,71.6,69.8,94,30.04,-9999.0,ESE,19.6,31.1,N/A,,Unknown,120,2013-05-07 02:41:00
1:00 PM,75.2,68.0,78,30.01,-9999.0,ESE,31.1,-,N/A,,Unknown,120,2013-05-07 03:00:00
1:30 PM,75.2,66.2,73,30.01,-9999.0,ESE,32.2,-,N/A,,Unknown,120,2013-05-07 03:30:00
2:00 PM,75.2,68.0,78,30.01,-9999.0,ESE,33.4,-,N/A,,Unknown,120,2013-05-07 04:00:00
2:30 PM,75.2,68.0,78,29.98,-9999.0,ESE,33.4,-,N/A,,Unknown,120,2013-05-07 04:30:00
3:00 PM,75,68,73,30.00,,ESE,33.4,,,,,120,2013-05-07 05:00:00
3:00 PM,75.2,68.0,78,30.01,-9999.0,ESE,33.4,-,N/A,,Unknown,120,2013-05-07 05:00:00
3:30 PM,75.2,66.2,73,30.01,-9999.0,ESE,32.2,-,N/A,,Unknown,120,2013-05-07 05:30:00
4:00 PM,75.2,68.0,78,30.01,-9999.0,ESE,31.1,-,N/A,,Unknown,120,2013-05-07 06:00:00
4:30 PM,75.2,66.2,73,30.01,-9999.0,ESE,31.1,-,N/A,,Unknown,120,2013-05-07 06:30:00
5:00 PM,73.4,68.0,83,30.04,-9999.0,SE,29.9,-,N/A,,Unknown,130,2013-05-07 07:00:00
5:30 PM,73.4,68.0,83,30.04,-9999.0,SE,28.8,-,N/A,,Unknown,130,2013-05-07 07:30:00
6:00 PM,73.4,66.2,78,30.04,-9999.0,SE,31.1,-,N/A,,Unknown,130,2013-05-07 08:00:00
6:30 PM,73.4,68.0,83,30.04,-9999.0,SE,25.3,-,N/A,,Unknown,140,2013-05-07 08:30:00
7:00 PM,75.2,68.0,78,30.04,-9999.0,ESE,27.6,-,N/A,,Unknown,120,2013-05-07 09:00:00
7:30 PM,75.2,68.0,78,30.06,-9999.0,ESE,31.1,-,N/A,,Unknown,120,2013-05-07 09:30:00
8:00 PM,75.2,66.2,73,30.06,-9999.0,ESE,29.9,-,N/A,,Unknown,120,2013-05-07 10:00:00
8:30 PM,75.2,64.4,69,30.06,-9999.0,ESE,33.4,-,N/A,,Unknown,120,2013-05-07 10:30:00
9:00 PM,73,67,77,30.09,,SE,25.3,,,,,130,2013-05-07 11:00:00
9:00 PM,73.4,68.0,83,30.09,-9999.0,SE,25.3,-,N/A,,Unknown,130,2013-05-07 11:00:00
9:30 PM,75.2,66.2,73,30.06,-9999.0,ESE,31.1,-,N/A,,Unknown,110,2013-05-07 11:30:00
10:00 PM,75.2,66.2,73,30.06,-9999.0,ESE,32.2,-,N/A,,Unknown,120,2013-05-07 12:00:00
10:30 PM,73.4,66.2,78,30.09,-9999.0,ESE,28.8,-,N/A,,Unknown,120,2013-05-07 12:30:00
11:00 PM,75.2,68.0,78,30.06,-9999.0,ESE,29.9,-,N/A,,Unknown,120,2013-05-07 13:00:00
11:23 PM,71.6,68.0,88,30.06,-9999.0,SE,31.1,42.6,N/A,,Unknown,130,2013-05-07 13:23:00
11:30 PM,71.6,69.8,94,30.06,-9999.0,SE,31.1,42.6,N/A,,Unknown,130,2013-05-07 13:30:00